Regional Weather Roundup
Issued by NWS

Home | Current Version | Previous Version | Text Only | Print | Product List | Glossary On
Versions: 1 2 3 4 5 6 7 8 9 10 11 12 13 14 15 16 17 18 19 20 21 22 23 24 25 26 27 28 29 30 31 32 33 34 35 36 37 38 39 40 41 42 43 44 45 46 47 48 49 50
000
ASUS43 KLMK 222110
RWRKY
KENTUCKY REGIONAL WEATHER ROUNDUP
NATIONAL WEATHER SERVICE LOUISVILLE KY
500 PM EDT TUE JUL 22 2014

NOTE "FAIR" INDICATES FEW OR NO CLOUDS BELOW 12,000 FEET
WITH NO SIGNIFICANT WEATHER AND/OR OBSTRUCTIONS TO VISIBILITY.

KYZ001>023-026-027-061>063-070>075-222200-
WESTERN AND SOUTH CENTRAL KENTUCKY

CITY           SKY/WX    TMP DP  RH WIND       PRES   REMARKS
PADUCAH        SUNNY     92  70  48 VRB5      30.05F HX  97
HENDERSON      SUNNY     91  70  49 W5        30.03F HX  97
OWENSBORO      MOSUNNY   93  68  44 W6        30.04S HX  97
HOPKINSVILLE   MOSUNNY   92  68  45 VRB2      30.04F HX  96
BOWLING GREEN  MOSUNNY   93  66  40 S9        30.04F HX  96
GLASGOW        SUNNY     92  63  38 S5        30.05F HX  93
$$

KYZ024-025-028>034-038-045-046-053-222200-
NORTH CENTRAL KENTUCKY

CITY           SKY/WX    TMP DP  RH WIND       PRES   REMARKS
LOUISVILLE/SDF MOSUNNY   93  69  45 S9        30.03F HX  98
LOUISVILLE/LOU MOSUNNY   93  66  40 W7        30.03F HX  96
FORT KNOX      MOSUNNY   90  73  56 N5        30.03F HX  97
$$

KYZ035>037-039>044-047>052-055>060-089>105-222200-
NORTHEAST KENTUCKY

CITY           SKY/WX    TMP DP  RH WIND       PRES   REMARKS
LEXINGTON      SUNNY     91  72  53 SW10      30.07F HX  98
COVINGTON      MOSUNNY   90  65  43 W9G16     30.06F HX  92
FRANKFORT      MOSUNNY   91  66  43 W9        30.05F HX  93
$$

KYZ054-064>069-076>088-106>120-222200-
SOUTHEAST KENTUCKY

CITY           SKY/WX    TMP DP  RH WIND       PRES   REMARKS
JACKSON        MOSUNNY   87  67  51 VRB3      30.10F HX  90
LONDON         CLOUDY    89  67  47 SW3       30.09F HX  92
SOMERSET       MOSUNNY   88  66  48 SW5       30.08F HX  90
MIDDLESBORO    MOSUNNY   88  69  52 S5        30.09F HX  92
MONTICELLO     CLEAR     91  73  55 SW6       30.09F HX  99
$$




USA.gov is the U.S. government's official web portal to all federal, state and local government web resources and services.